Home   Weather   Tarlac City   Past weeks

Flag for Philippines Past Weather in Tarlac City, Philippines — Yesterday and Last 2 Weeks

Now
77 °F

Passing clouds.


Feels Like: 79 °F
Forecast: 70 / 86 °F
Wind: 10 mph from Northeast

Location: Clarkfield Pampanga International Airport

Current Time: Jan 17, 2017 at 9:14:37 pm

Latest Report: Jan 17, 2017 at 7:00 pm


Visibility: N/A

Pressure: 30.01 "Hg

Humidity: 69%

Dew Point: 66 °F

Location of Tarlac CityLocation

Past Weather in Tarlac City — Graph

°F

Tarlac City Temperature Yesterday

Maximum temperature yesterday: 84 °F (at 2:00 pm)
Minimum temperature yesterday: 73 °F (at 2:00 am)
Average temperature yesterday: 77 °F

High & Low Weather Summary for the Past Weeks

 TemperatureHumidityPressure
High90 °F (Jan 13, 2:00 pm)94% (Jan 11, 5:00 am)30.01 "Hg (Jan 11, 5:00 am)
Low70 °F (Jan 8, 6:00 am)43% (Jan 9, 3:00 pm)29.77 "Hg (Jan 7, 2:00 pm)
Average79 °F74%29.89 "Hg
* Reported Jan 2 7:00 pm — Jan 17 7:00 pm, Tarlac City, Weather by CustomWeather, © 2017

Note: Actual official high and low records may vary slightly from our data, if they occured in-between our weather recording intervals... More about our weather records

Advertising

Tarlac City Weather History for the Previous 24 Hours

Scroll right to see more
 ConditionsComfort  
Time TempWeatherWind HumidityBarometerVisibility
7:00 pm
Tue, Jan 17
77 °FPassing clouds.10 mph69%30.01 "HgN/A
6:00 pm79 °FPassing clouds.7 mph65%29.98 "HgN/A
5:00 pm81 °FPartly sunny.13 mph62%29.98 "HgN/A
4:00 pm81 °FBroken clouds.10 mph66%29.95 "HgN/A
3:00 pm82 °FBroken clouds.12 mph58%29.95 "HgN/A
2:00 pm82 °FBroken clouds.14 mph62%29.95 "HgN/A
1:00 pm84 °FBroken clouds.8 mph55%29.98 "HgN/A
12:00 pm81 °FBroken clouds.6 mph62%30.01 "HgN/A
11:00 am81 °FMore clouds than sun.9 mph62%30.01 "HgN/A
10:00 am79 °FBroken clouds.3 mph65%30.01 "HgN/A
9:00 am75 °FBroken clouds.8 mph74%30.01 "HgN/A
8:00 am73 °FBroken clouds.8 mph74%30.01 "HgN/A
7:00 am72 °FBroken clouds.8 mph78%29.98 "HgN/A
6:00 am72 °FPartly cloudy.8 mph78%29.95 "HgN/A
5:00 am72 °FPassing clouds.5 mph78%29.95 "HgN/A
4:00 am72 °FPassing clouds.8 mph78%29.95 "HgN/A
3:00 am72 °FPassing clouds.8 mph83%29.95 "HgN/A
2:00 am72 °FPassing clouds.9 mph83%29.98 "HgN/A
1:00 am72 °FPassing clouds.8 mph78%29.98 "HgN/A
12:00 am73 °FPassing clouds.6 mph78%30.01 "HgN/A
11:00 pm
Mon, Jan 16
73 °FPassing clouds.6 mph78%30.01 "HgN/A
10:00 pm73 °FPassing clouds.3 mph74%30.01 "HgN/A
9:00 pm75 °FPartly cloudy.5 mph69%30.01 "HgN/A
Weather by CustomWeather, © 2017

See weather overviewHow to use our weather pages